Change the Weather History Date:

Tuesday, January 21, 2014

  Actual Average (KMIE) Record (KMIE)
Temperature  
Mean Temperature 12 °F 26 °F  
Max Temperature 78 °F 34 °F 55 °F (1964)
Min Temperature -4 °F 19 °F -24 °F (1985)
Degree Days  
Heating Degree Days 54 39  
Month to date heating degree days 810  
Since 1 July heating degree days 3008  
Cooling Degree Days 0 0  
Month to date cooling degree days 0  
Year to date cooling degree days 0  
Moisture  
Dew Point -1 °F    
Average Humidity 66    
Maximum Humidity 87    
Minimum Humidity 43    
Precipitation  
Precipitation 0.00 in 0.07 in 0.45 in (1974)
Month to date precipitation 1.49  
Year to date precipitation 1.49  
Sea Level Pressure  
Sea Level Pressure 30.10 in    
Wind  
Wind Speed 15 mph (NNE)    
Max Wind Speed 25 mph    
Max Gust Speed 34 mph    
Visibility 8 miles    
Events Snow    
T = Trace of Precipitation, MM = Missing Value Source: NWS Daily Summary

Daily Weather History Graph

Daily Weather History Graph

Search for Another Location

Airport or City:

Trip Planner

Search our weather history database for the weather conditions in past years. The results will help you decide how hot, cold, wet, or windy it might be!

Date:

Astronomy

Jan. 21, 2014 Rise Set
Actual Time 8:00 AM EST 5:47 PM EST
Civil Twilight 7:31 AM EST 6:17 PM EST
Nautical Twilight 6:58 AM EST 6:50 PM EST
Astronomical Twilight 6:25 AM EST 7:22 PM EST
Moon 11:21 PM EST (1/21) 10:29 AM EST (1/21)
Length of Visible Light 10h 45m
Length of Day
9h 46m
Waning Gibbous, 75% of the Moon is Illuminated
Jan 21
Waning Gibbous
Jan 24
Last Quarter
Jan 30
New
Feb 6
First Quarter
Feb 14
Full

Hourly Weather History & Observations

Time (EST) Temp. Windchill Dew Point Humidity Pressure Visibility Wind Dir Wind Speed Gust Speed Precip Events Conditions
12:15 AM 27.0 °F 13.9 °F 22.1 °F 82% 29.87 in 10.0 mi NE 18.4 mph - N/A   Overcast
12:35 AM 26.2 °F 13.0 °F 21.6 °F 82% 29.87 in 7.0 mi NE 18.4 mph 24.2 mph N/A   Overcast
12:55 AM 25.2 °F 12.0 °F 20.3 °F 82% 29.88 in 7.0 mi NE 17.3 mph 20.7 mph N/A   Overcast
1:15 AM 24.1 °F 11.5 °F 19.4 °F 82% 29.87 in 7.0 mi ENE 15.0 mph 24.2 mph N/A Snow Light Snow
1:35 AM 23.7 °F 10.1 °F 19.6 °F 84% 29.86 in 3.0 mi NE 17.3 mph 21.9 mph N/A Snow Light Snow
1:55 AM 22.8 °F 9.4 °F 18.9 °F 85% 29.88 in 3.0 mi NE 16.1 mph - N/A Snow Light Snow
2:15 AM 22.3 °F 8.7 °F 18.5 °F 85% 29.88 in 1.5 mi NE 16.1 mph 23.0 mph N/A Snow Light Snow
2:35 AM 21.7 °F 4.9 °F 18.3 °F 87% 29.89 in 1.0 mi NE 25.3 mph 29.9 mph N/A Snow Light Snow
2:55 AM 19.2 °F 3.0 °F 15.8 °F 87% 29.91 in 1.2 mi NE 20.7 mph 25.3 mph N/A Snow Light Snow
3:15 AM 17.1 °F 1.0 °F 13.3 °F 85% 29.92 in 1.8 mi NE 18.4 mph 31.1 mph N/A Snow Light Snow
3:35 AM 16.0 °F -2.1 °F 11.8 °F 84% 29.93 in 2.5 mi NE 23.0 mph 28.8 mph N/A Snow Light Snow
3:55 AM 15.1 °F -2.5 °F 10.4 °F 82% 29.95 in 2.5 mi NE 20.7 mph 28.8 mph N/A Snow Light Snow
4:15 AM 14.2 °F -1.7 °F 9.5 °F 82% 29.96 in 1.5 mi NE 16.1 mph 27.6 mph N/A Snow Light Snow
4:35 AM 13.5 °F -4.6 °F 9.0 °F 82% 29.97 in 1.2 mi NE 20.7 mph 31.1 mph N/A Snow Light Snow
4:55 AM 12.6 °F -6.6 °F 8.1 °F 82% 29.98 in 1.8 mi NE 23.0 mph 32.2 mph N/A Snow Light Snow
5:15 AM 12.0 °F -7.3 °F 7.2 °F 81% 29.99 in 1.8 mi NE 23.0 mph 33.4 mph N/A Snow Light Snow
5:35 AM 10.8 °F -8.1 °F 5.5 °F 79% 30.00 in 2.0 mi NE 20.7 mph 32.2 mph N/A Snow Light Snow
5:55 AM 10.6 °F -8.4 °F 5.4 °F 79% 30.01 in 3.0 mi NNE 20.7 mph 28.8 mph N/A Snow Light Snow
6:15 AM 10.2 °F -9.3 °F 4.8 °F 79% 30.02 in 2.5 mi NNE 21.9 mph 26.5 mph N/A   Haze
6:35 AM 9.5 °F -9.3 °F 3.2 °F 76% 30.03 in 4.0 mi NNE 19.6 mph 34.5 mph N/A   Haze
6:55 AM 8.8 °F -8.7 °F 2.3 °F 75% 30.06 in 5.0 mi NNE 16.1 mph 27.6 mph N/A   Haze
7:15 AM 8.6 °F -11.9 °F 2.8 °F 77% 30.06 in 4.0 mi NNE 23.0 mph 32.2 mph N/A Snow Light Snow
7:35 AM 8.1 °F -9.6 °F 1.4 °F 74% 30.08 in 4.0 mi NNE 16.1 mph 29.9 mph N/A   Haze
7:55 AM 7.7 °F -12.2 °F 1.4 °F 75% 30.09 in 10.0 mi NNE 20.7 mph 24.2 mph N/A   Mostly Cloudy
8:15 AM 7.2 °F -10.8 °F 0.1 °F 73% 30.10 in 10.0 mi NNE 16.1 mph 24.2 mph N/A   Scattered Clouds
8:35 AM 6.8 °F -11.8 °F -1.1 °F 70% 30.11 in 10.0 mi NNE 17.3 mph - N/A   Clear
8:55 AM 6.6 °F -12.6 °F -2.6 °F 66% 30.12 in 10.0 mi North 18.4 mph 23.0 mph N/A   Clear
9:15 AM 6.8 °F -13.4 °F -3.1 °F 64% 30.13 in 10.0 mi NNE 20.7 mph - N/A   Clear
9:35 AM 7.2 °F -11.4 °F -4.2 °F 60% 30.13 in 10.0 mi NNE 17.3 mph 23.0 mph N/A   Clear
9:55 AM 7.5 °F -10.3 °F -5.1 °F 56% 30.14 in 7.0 mi NNE 16.1 mph 21.9 mph N/A   Clear
10:15 AM 8.1 °F -10.7 °F -5.6 °F 54% 30.14 in 10.0 mi NNE 18.4 mph 25.3 mph N/A   Clear
10:35 AM 8.2 °F -8.2 °F -5.6 °F 53% 30.15 in 10.0 mi NNE 13.8 mph 23.0 mph N/A   Clear
10:55 AM 8.6 °F -10.5 °F -5.8 °F 52% 30.16 in 7.0 mi NE 19.6 mph 26.5 mph N/A   Clear
11:15 AM 9.0 °F -11.0 °F -6.0 °F 51% 30.16 in 10.0 mi NE 21.9 mph 26.5 mph N/A   Clear
11:35 AM 9.3 °F -8.0 °F -6.0 °F 50% 30.16 in 10.0 mi NE 16.1 mph 20.7 mph N/A   Clear
11:55 AM 9.7 °F -7.5 °F -6.3 °F 48% 30.16 in 10.0 mi NNE 16.1 mph 23.0 mph N/A   Clear
12:15 PM 10.0 °F -7.6 °F -6.9 °F 46% 30.16 in 10.0 mi NNE 17.3 mph 23.0 mph N/A   Clear
12:35 PM 10.4 °F -8.6 °F -6.0 °F 48% 30.16 in 7.0 mi NNE 20.7 mph 24.2 mph N/A   Clear
12:55 PM 10.2 °F -9.7 °F -5.3 °F 50% 30.15 in 10.0 mi North 23.0 mph - N/A   Clear
1:15 PM 10.4 °F -4.1 °F -4.9 °F 50% 30.15 in 10.0 mi NNE 11.5 mph - N/A   Clear
1:35 PM 10.8 °F -6.2 °F -6.3 °F 46% 30.14 in 10.0 mi NNE 16.1 mph 19.6 mph N/A   Clear
1:55 PM 10.8 °F -5.6 °F -6.5 °F 46% 30.14 in 10.0 mi North 15.0 mph 20.7 mph N/A   Clear
2:15 PM 11.1 °F -6.2 °F -5.4 °F 47% 30.15 in 10.0 mi North 17.3 mph - N/A   Clear
2:35 PM 11.3 °F -2.9 °F -5.8 °F 46% 30.14 in 10.0 mi North 11.5 mph - N/A   Clear
2:55 PM 11.3 °F -4.9 °F -6.9 °F 44% 30.14 in 10.0 mi North 15.0 mph - N/A   Clear
3:15 PM 11.3 °F -1.3 °F -6.7 °F 44% 30.15 in 10.0 mi North 9.2 mph 17.3 mph N/A   Clear
3:35 PM 11.5 °F -2.7 °F -6.9 °F 44% 30.15 in 10.0 mi NNW 11.5 mph - N/A   Clear
3:55 PM 11.3 °F -4.3 °F -7.6 °F 43% 30.16 in 10.0 mi North 13.8 mph 18.4 mph N/A   Clear
4:15 PM 11.1 °F -2.4 °F -7.2 °F 44% 30.17 in 10.0 mi North 10.4 mph 17.3 mph N/A   Clear
4:35 PM 10.8 °F -2.8 °F -7.1 °F 45% 30.18 in 10.0 mi North 10.4 mph 17.3 mph N/A   Clear
4:55 PM 10.4 °F -2.4 °F -6.9 °F 46% 30.18 in 10.0 mi North 9.2 mph - N/A   Clear
5:15 PM 9.9 °F -2.2 °F -6.7 °F 47% 30.19 in 10.0 mi North 8.1 mph - N/A   Clear
5:35 PM 9.3 °F -0.5 °F -7.1 °F 48% 30.20 in 10.0 mi North 5.8 mph - N/A   Clear
5:55 PM 8.8 °F 0.4 °F -7.2 °F 48% 30.20 in 10.0 mi North 4.6 mph - N/A   Clear
6:15 PM 7.9 °F 1.2 °F -7.1 °F 51% 30.20 in 10.0 mi North 3.5 mph - N/A   Clear
6:35 PM 6.1 °F - -6.9 °F 55% 30.20 in 10.0 mi Calm Calm - N/A   Clear
6:55 PM 5.5 °F - -6.5 °F 58% 30.20 in 10.0 mi Calm Calm - N/A   Clear
7:15 PM 5.0 °F - -6.5 °F 59% 30.20 in 10.0 mi Calm Calm - N/A   Clear
7:35 PM 3.7 °F - -6.3 °F 63% 30.20 in 10.0 mi Calm Calm - N/A   Clear
7:55 PM 2.3 °F -5.2 °F -6.7 °F 66% 30.20 in 10.0 mi West 3.5 mph - N/A   Clear
8:15 PM -0.8 °F - -8.7 °F 69% 30.20 in 10.0 mi Calm Calm - N/A   Clear
8:35 PM -1.1 °F - -8.1 °F 72% 30.19 in 10.0 mi Calm Calm - N/A   Clear
8:55 PM -0.6 °F - -7.2 °F 73% 30.19 in 10.0 mi Calm Calm - N/A   Clear
9:15 PM -0.6 °F - -7.4 °F 73% 30.19 in 10.0 mi Calm Calm - N/A   Clear
9:35 PM -1.3 °F - -7.6 °F 75% 30.19 in 10.0 mi Calm Calm - N/A   Clear
9:55 PM -1.7 °F - -7.4 °F 77% 30.19 in 10.0 mi Calm Calm - N/A   Clear
10:15 PM -1.8 °F - -7.4 °F 77% 30.19 in 10.0 mi Calm Calm - N/A   Clear
10:35 PM -2.0 °F - -7.2 °F 78% 30.18 in 10.0 mi Calm Calm - N/A   Clear
10:55 PM -4.4 °F - -9.6 °F 78% 30.19 in 10.0 mi Calm Calm - N/A   Clear
11:15 PM -4.0 °F - -8.9 °F 80% 30.18 in 10.0 mi Calm Calm - N/A   Clear
11:35 PM -4.5 °F - -9.6 °F 79% 30.19 in 10.0 mi Calm Calm - N/A   Clear
11:55 PM -4.2 °F - -9.4 °F 78% 30.19 in 10.0 mi Calm Calm - N/A   Clear